Hourly Data Report for January 12, 2018

All times are specified in Local Standard Time (LST). Add 1 hour to adjust for Daylight Saving Time where and when it is observed.

PANGNIRTUNG
NUNAVUT

66°08'36.300" N
65°42'40.500" W
22.60 m
2403049
71826
WXP

Download Data

Hourly Data (January 2018)
Hourly Data Report for January 12, 2018
Temp Definition
°C
Dew Point Temp Definition
°C
Rel Hum Definition
%
Wind Dir Definition
10's deg

Wind Spd Definition
km/h
Visibility Definition
km
Stn Press Definition
kPa
Hmdx Definition


Wind Chill Definition


Weather Definition


TIME
00:00 -26.2 -29.6 73 24 21   99.26   -39 LegendNANA
01:00 -27.4 -30.5 74 25 20   99.29   -40 LegendNANA
02:00 -27.6 -30.9 74 25 20   99.31   -40 LegendNANA
03:00 -28.1 -31.3 74 25 22   99.33   -41 LegendNANA
04:00 -29.2 -32.3 75 25 19   99.33   -42 LegendNANA
05:00 -30.4 -33.8 72 24 7   99.36   -38 LegendNANA
06:00 -30.6 -33.7 75 25 13   99.37   -41 LegendNANA
07:00 -30.3 -33.6 73 21 6   99.41   -37 LegendNANA
08:00 -30.6 -33.7 74 22 15   99.42   -42 LegendNANA
09:00 -31.3 -34.2 76 12 2   99.41   -34 LegendNANA
10:00 -31.6 -34.7 75 25 9   99.44   -40 LegendNANA
11:00 -31.8 -34.7 75 25 10   99.44   -41 LegendNANA
12:00 -31.7 -34.9 74 25 7   99.46   -39 LegendNANA
13:00 -31.8 -34.8 75 25 8   99.47   -40 LegendNANA
14:00 -31.9 -35.0 74 25 6   99.46   -39 LegendNANA
15:00 -32.6 -36.0 71 0 1   99.47   -34 LegendNANA
16:00 -32.5 -35.7 73 11 1   99.46   -34 LegendNANA
17:00 -32.8 -35.9 74 20 1   99.46   -34 LegendNANA
18:00 -33.1 -36.7 70 12 3   99.44   -37 LegendNANA
19:00 -33.0 -36.5 71 18 2   99.44   -35 LegendNANA
20:00 -33.2 -36.8 71 17 2   99.45   -36 LegendNANA
21:00 -33.8 -37.2 71   0   99.46     LegendNANA
22:00 -32.8 -36.1 72 26 3   99.44   -36 LegendNANA
23:00 -33.0 -36.2 73 0 1   99.41   -34 LegendNANA

Notes on Data Quality.

Legend

  • E = Estimated
  • M = Missing
  • NA = Not Available
  • ‡ = Partner data that is not subject to review by the National Climate Archives
Date modified: